Location: Palomar Mountain Lodge
(33.3110°N, 116.8495°W)
Time: 02:22:23
(UTC-07:00)

Meteor 1-12 Rocket - Pass Details

Date: 19 May 2017
Orbit: 856 x 925 km, 81.2° (Epoch: 16 October)

Event Time Altitude Azimuth Distance (km) Brightness Sun altitude
Rises 20:59:52 0° 355° (N) 3,573 8.1 -14.5°
Reaches altitude 10° 21:02:24 10° 359° (N) 2,628 7.3 -15.0°
Maximum altitude 21:08:22 64° 80° (E) 1,015 4.4 -15.9°
Enters shadow 21:12:24 21° 157° (SSE) 1,929 5.6 -16.6°
